Flag for Germany Weather past 2 weeks in Reutlingen, Baden-Württemberg, Germany

Now
64 °F

Broken clouds.


Feels Like: 64 °F
Forecast: 36 / 53 °F
Wind: 12 mph from North

Location: Stuttgart-Echterdingen

Current Time: Apr 27, 2015 at 3:13:07 PM

Latest Report: Apr 27, 2015 at 2:20 PM


Visibility: N/A

Pressure: 29.59 "Hg

Humidity: 60%

Dew point: 50 °F

Location of ReutlingenLocation

Historic Weather in Reutlingen — Graph

°F

Reutlingen temperature yesterday

Maximum temperature yesterday: 70 °F (at 3:50 PM)
Minimum temperature yesterday: 52 °F (at 3:50 AM)
Average temperature yesterday: 61 °F

Past Weeks' High & Low Weather Summary

 TemperatureHumidityPressure
High77 °F (Apr 15, 3:20 PM)94% (Apr 25, 9:50 PM)30.42 "Hg (Apr 25, 9:50 PM)
Low32 °F (Apr 23, 6:20 AM)15% (Apr 15, 5:50 PM)29.59 "Hg (Apr 27, 3:50 AM)
Average54 °F57%30.10 "Hg
* Reported Apr 12 1:20 PM — Apr 27 1:50 PM, Reutlingen, Weather by CustomWeather, © 2015

Note: Actual official high and low records may vary slightly from our data, if they occured in-between our weather recording intervals... More about our weather records

Advertising

Reutlingen weather history for previous 24 hours

 ConditionsComfort  
Time TempWeatherWind HumidityBarometerVisibility
1:50 PM
Mon, Apr 27
64 °FBroken clouds.10 mph60%29.59 "HgN/A
1:20 PM64 °FBroken clouds.10 mph60%29.59 "HgN/A
12:50 PM64 °FBroken clouds.10 mph64%29.59 "HgN/A
12:20 PM63 °FBroken clouds.8 mph68%29.59 "HgN/A
11:50 AM63 °FBroken clouds.9 mph64%29.59 "HgN/A
11:20 AM63 °FScattered clouds.8 mph64%29.59 "HgN/A
10:50 AM63 °FScattered clouds.8 mph64%29.59 "HgN/A
10:20 AM61 °FBroken clouds.1 mph72%29.59 "HgN/A
9:50 AM61 °FPartly sunny.1 mph72%29.59 "HgN/A
9:20 AM59 °FSunny.1 mph77%29.59 "Hg10 mi
8:50 AM59 °FSunny.2 mph82%29.59 "Hg10 mi
8:20 AM57 °FPassing clouds.3 mph82%29.59 "HgN/A
7:50 AM59 °FSunny.2 mph77%29.59 "Hg10 mi
7:20 AM55 °FSunny.1 mph88%29.59 "Hg10 mi
6:50 AM52 °FClear.2 mph94%29.59 "Hg10 mi
6:20 AM54 °FClear.2 mph88%29.59 "Hg10 mi
5:50 AM52 °FClear.3 mph88%29.59 "Hg10 mi
5:20 AM54 °FClear.7 mph88%29.59 "Hg10 mi
4:50 AM54 °FPassing clouds.3 mph88%29.59 "HgN/A
4:20 AM54 °FClear.3 mph88%29.59 "Hg10 mi
3:50 AM54 °FPassing clouds.3 mph88%29.59 "HgN/A
3:20 AM57 °FPassing clouds.6 mph77%29.62 "HgN/A
2:50 AM57 °FPassing clouds.8 mph82%29.62 "HgN/A
2:20 AM55 °FPassing clouds.2 mph88%29.62 "HgN/A
1:50 AM57 °FPartly cloudy.2 mph82%29.62 "HgN/A
1:20 AM57 °FPartly cloudy.3 mph82%29.62 "HgN/A
12:50 AM57 °FPassing clouds.3 mph88%29.65 "HgN/A
12:20 AM59 °FPassing clouds.3 mph82%29.65 "HgN/A
11:50 PM
Sun, Apr 26
61 °FLight rain. Passing clouds.2 mph77%29.65 "HgN/A
11:20 PM61 °FLight rain. Passing clouds.3 mph77%29.65 "HgN/A
10:50 PM61 °FSprinkles. Partly cloudy.2 mph77%29.65 "HgN/A
10:20 PM63 °FPassing clouds.2 mph68%29.68 "HgN/A
9:50 PM63 °FSprinkles. Passing clouds.3 mph64%29.68 "HgN/A
9:20 PM63 °FSprinkles. Partly sunny.3 mph64%29.65 "HgN/A
8:50 PM63 °FPartly sunny.2 mph64%29.65 "HgN/A
8:20 PM64 °FBroken clouds.2 mph60%29.65 "HgN/A
7:50 PM66 °FPartly sunny.5 mph56%29.65 "HgN/A
7:20 PM68 °FPartly sunny.2 mph56%29.65 "HgN/A
6:50 PM68 °FPartly sunny.3 mph49%29.65 "HgN/A
6:20 PM68 °FPartly sunny.6 mph46%29.68 "HgN/A
5:50 PM68 °FBroken clouds.8 mph46%29.68 "HgN/A
5:20 PM68 °FBroken clouds.7 mph46%29.68 "HgN/A
4:50 PM68 °FBroken clouds.9 mph46%29.68 "HgN/A
4:20 PM68 °FBroken clouds.12 mph46%29.71 "HgN/A
3:50 PM70 °FPartly sunny.6 mph40%29.71 "HgN/A
3:20 PM68 °FPartly sunny.3 mph43%29.74 "HgN/A
Weather by CustomWeather, © 2015

See weather overviewHow to use our weather pages